Regional Weather Roundup
Issued by NWS

Home | Current Version | Previous Version | Text Only | Print | Product List | Glossary Off
Versions: 1 2 3 4 5 6 7 8 9 10 11 12 13 14 15 16 17 18 19 20 21 22 23 24 25 26 27 28 29 30 31 32 33 34 35 36 37 38 39 40 41 42 43 44 45 46 47 48 49 50

000
ASUS43 KDTX 102210
RWRMI
MICHIGAN HOURLY REGIONAL WEATHER ROUNDUP
NATIONAL WEATHER SERVICE DETROIT/PONTIAC MI
ISSUED BY NATIONAL WEATHER SERVICE GRAND RAPIDS MI
500 PM EST SAT DEC 10 2016

NOTE: "FAIR" INDICATES FEW OR NO CLOUDS BELOW 12,000 FEET WITH NO
SIGNIFICANT WEATHER AND/OR OBSTRUCTION TO VISIBILITY.

MIZ047>049-052>055-059>063-066>070-074>076-081>083-102300-
SOUTHEAST LOWER MICHIGAN

CITY           SKY/WX    TMP DP  RH WIND       PRES   REMARKS
ADRIAN         PTCLDY    25  16  68 NW8       30.42F WCI  16
ALMA           MOCLDY    23  11  61 W8        30.38S WCI  14
ANN ARBOR      CLOUDY    24  17  74 SW13      30.40S WCI  12
BAD AXE        MOCLDY    23  13  68 W6        30.37R WCI  15
DETROIT CITY   MOCLDY    27  16  63 W10       30.41S WCI  17
DETROIT        CLOUDY    27  15  61 W10       30.43R WCI  17
FLINT          CLOUDY    23  16  74 W7        30.39S WCI  15
GROSSE ILE     FLURRIES  28  18  66 W10G16    30.42S WCI  18
HILLSDALE      CLOUDY    23  16  74 W7        30.38S WCI  15
HOWELL         LGT SNOW  24  22  92 W3        30.38S VSB 1

CITY           SKY/WX    TMP DP  RH WIND       PRES   REMARKS
JACKSON        CLOUDY    23  16  74 W8        30.39S WCI  14
LANSING        CLOUDY    24  17  74 W8        30.39S WCI  15
MASON          CLOUDY    24  20  87 W7        30.39S WCI  15
MONROE         CLOUDY    28  18  66 W10       30.42S WCI  19
MT. CLEMENS    FLURRIES  27  16  63 W13       30.37S WCI  17
PONTIAC        LGT SNOW  24  19  81 W7        30.37S WCI  16
PORT HOPE        N/A     24  13  62 SW8       30.34S WCI  15
PORT HURON     MOCLDY    25  19  80 W5        30.40S WCI  19
TRI CITIES     PTCLDY    23  12  62 W10       30.38S WCI  12
YPSILANTI      MOCLDY    26  17  68 W12       30.42S WCI  16
$$
MIZ043>046-050>051-056>058-064>065-071>073-077>080-102300-
SOUTHWEST LOWER MICHIGAN

CITY           SKY/WX    TMP DP  RH WIND       PRES   REMARKS
BATTLE CREEK   FLURRIES  22  19  89 SW9       30.39S WCI  12
BENTON HARBOR  CLOUDY    26  16  65 S3        30.41F
BIG RAPIDS     CLOUDY    20  11  68 W7        30.35S WCI  11
COLDWATER      CLOUDY    24  17  73 W9        30.40F WCI  14
HOLLAND        CLOUDY    26  16  65 W6        30.39F WCI  19
GRAND RAPIDS   LGT SNOW  23  18  81 W6        30.39S WCI  16
KALAMAZOO      LGT SNOW  23  17  78 SW10      30.40F WCI  12
MARSHALL       FLURRIES  23  18  81 SW6       30.39S WCI  16
MOUNT PLEASANT CLOUDY    23   9  56 W9        30.36S WCI  13
MUSKEGON       FLURRIES  25  14  63 W8        30.39F WCI  16
STURGIS        CLOUDY    24  16  71 SW8       30.41S WCI  15
$$
MIZ016>042-102300-
NORTHERN LOWER MICHIGAN

CITY           SKY/WX    TMP DP  RH WIND       PRES   REMARKS
ALPENA         PTCLDY    21   8  57 SW10G20   30.33S WCI  10
BEAVER ISLAND  CLOUDY    23  14  68 W6        30.31S WCI  16
BELLAIRE       FLURRIES  21  13  72 SW5       30.35F WCI  14
CADILLAC       FLURRIES  18  13  80 W8        30.30S WCI   8
CHARLEVOIX     FLURRIES  22  15  74 S9        30.34S WCI  12
GAYLORD        CLOUDY    17   9  70 SW13      30.28S WCI   4
HOUGHTON LAKE  LGT SNOW  18  14  84 NW5       30.32S FOG     WCI  11
MANISTEE       FLURRIES  21  13  71 SW5       30.36F WCI  15
OSCODA         CLOUDY    26   9  49 W10       30.34R WCI  16
PELLSTON       CLOUDY    22  13  68 SW5       30.30S WCI  16
TRAVERSE CITY  FLURRIES  20  12  71 W6        30.35F WCI  12
LUDINGTON      CLOUDY    22  13  69 W3        30.37F
$$
MIZ007>008-015-102300-
EASTERN UPPER MICHIGAN

CITY           SKY/WX    TMP DP  RH WIND       PRES   REMARKS
KINROSS        FLURRIES  20  14  77 W9        30.27S WCI   9
MACKINAC ISLAN CLOUDY    22  17  80 W10G21    30.27S WCI  11
NEWBERRY       LGT SNOW  17  15  91 W5        30.27S VSB 3/4 WCI  10
S. S. MARIE    CLOUDY    22  12  65 CALM      30.27R
$$
MIZ004>006-011>014-085-102300-
CENTRAL UPPER MICHIGAN

CITY           SKY/WX    TMP DP  RH WIND       PRES   REMARKS
MANISTIQUE     CLEAR     16   9  74 NW3       30.31S
ESCANABA       CLEAR     18   5  57 W5        30.34R WCI  11
MENOMINEE        N/A     17   2  51 SW7       30.37R WCI   8
SAWYER-GWINN   CLEAR     12   3  67 W7        30.29R WCI   2
$$
MIZ001>003-009>011-084-102300-
WESTERN UPPER MICHIGAN

CITY           SKY/WX    TMP DP  RH WIND       PRES   REMARKS
IRON MOUNTAIN  CLEAR     14  -2  49 W3        30.30R
HOUGHTON       LGT SNOW  13   8  81 SW6       30.28F VSB 3/4 WCI   4
COPPER HARBOR    N/A     16   7  67 W5        30.32F WCI   9
IRONWOOD       PTCLDY     7  -4  60 CALM      30.32S
$$

ABBREVIATIONS USED IN REMARKS
   TC - TEMPERATURE IN CELSIUS
  WCI - WIND CHILL INDEX
   HX - HEAT INDEX
  VSB - VISIBILITY





USA.gov is the U.S. government's official web portal to all federal, state and local government web resources and services.